Location: Chamerau
(49.1969°N, 12.7525°E)
Time: 06:24:49
(UTC+00:00)

Nadezhda 4 Rocket - Pass Details

Date: 18 September 2020
Orbit: 949 x 993 km, 82.9° (Epoch: 22 October)

Event Time Altitude Azimuth Distance (km) Brightness Sun altitude
Rises 18:50:07 0° 351° (N) 3,641 7.4 -16.0°
Reaches altitude 10° 18:52:38 10° 352° (N) 2,688 6.7 -16.4°
Maximum altitude 18:58:47 80° 80° (E) 969 3.9 -17.3°
Enters shadow 19:04:42 11° 168° (SSE) 2,596 5.9 -18.2°
